Time,TemperatureF,DewpointF,PressureIn,WindDirection,WindDirectionDegrees,WindSpeedMPH,WindSpeedGustMPH,Humidity,HourlyPrecipIn,Conditions,Clouds,dailyrainin,SoftwareType,DateUTC
2013-04-18 00:02:00,73.0,68.2,29.91,SSE,158,0.0,0.9,85,0.00,,---,0.00,VWS V14.01,2013-04-18 05:02:00,
2013-04-18 00:07:00,73.0,68.2,29.91,SSE,158,2.9,3.4,85,0.00,,---,0.00,VWS V14.01,2013-04-18 05:07:00,
2013-04-18 00:12:00,72.8,68.0,29.91,SSE,158,4.9,4.9,85,0.00,,---,0.00,VWS V14.01,2013-04-18 05:12:00,
2013-04-18 00:17:00,72.8,68.0,29.91,SSE,158,0.0,0.0,85,0.00,,---,0.00,VWS V14.01,2013-04-18 05:17:00,
2013-04-18 00:22:00,72.6,68.2,29.91,SE,135,0.9,2.9,86,0.00,,---,0.00,VWS V14.01,2013-04-18 05:22:00,
2013-04-18 00:27:00,72.6,68.2,29.91,SSE,158,2.5,2.9,86,0.00,,---,0.00,VWS V14.01,2013-04-18 05:27:00,
2013-04-18 00:32:00,72.6,68.2,29.91,ESE,112,0.0,1.6,86,0.00,,---,0.00,VWS V14.01,2013-04-18 05:32:00,
2013-04-18 00:37:00,72.4,68.0,29.91,ESE,112,2.5,2.5,86,0.00,,---,0.00,VWS V14.01,2013-04-18 05:37:00,
2013-04-18 00:42:00,72.4,68.3,29.91,SE,135,1.1,3.4,87,0.00,,---,0.00,VWS V14.01,2013-04-18 05:42:00,
2013-04-18 00:47:00,72.4,68.3,29.91,SSE,158,0.0,1.6,87,0.00,,---,0.00,VWS V14.01,2013-04-18 05:47:00,
2013-04-18 00:52:00,72.2,68.2,29.91,ENE,68,0.0,5.8,87,0.00,,---,0.00,VWS V14.01,2013-04-18 05:52:00,
2013-04-18 00:58:00,72.2,68.2,29.91,SSE,158,4.5,4.5,87,0.00,,---,0.00,VWS V14.01,2013-04-18 05:58:00,
2013-04-18 01:03:00,72.2,67.8,29.91,SSW,202,1.6,4.3,86,0.00,,---,0.00,VWS V14.01,2013-04-18 06:03:00,
2013-04-18 01:08:00,72.1,67.3,29.91,SSE,158,2.7,4.7,85,0.00,,---,0.00,VWS V14.01,2013-04-18 06:08:00,
2013-04-18 01:13:00,71.9,66.8,29.91,WSW,248,2.5,3.8,84,0.00,,---,0.00,VWS V14.01,2013-04-18 06:13:00,
2013-04-18 01:18:00,71.7,66.6,29.91,ESE,112,3.1,4.3,84,0.00,,---,0.00,VWS V14.01,2013-04-18 06:18:00,
2013-04-18 01:23:00,71.5,66.4,29.91,SSE,158,5.6,5.6,84,0.00,,---,0.00,VWS V14.01,2013-04-18 06:23:00,
2013-04-18 01:28:00,71.3,66.3,29.91,SSE,158,3.4,3.8,84,0.00,,---,0.00,VWS V14.01,2013-04-18 06:28:00,
2013-04-18 01:33:00,71.2,66.1,29.91,ESE,112,2.2,2.7,84,0.00,,---,0.00,VWS V14.01,2013-04-18 06:33:00,
2013-04-18 01:38:00,71.0,65.9,29.91,SSE,158,3.1,3.1,84,0.00,,---,0.00,VWS V14.01,2013-04-18 06:38:00,
2013-04-18 01:43:00,70.8,65.7,29.91,SSE,158,1.1,3.4,84,0.00,,---,0.00,VWS V14.01,2013-04-18 06:43:00,
2013-04-18 01:48:00,70.6,65.6,29.91,SSE,158,3.8,3.8,84,0.00,,---,0.00,VWS V14.01,2013-04-18 06:48:00,
2013-04-18 01:53:00,70.4,65.4,29.91,SE,135,0.0,0.0,84,0.00,,---,0.00,VWS V14.01,2013-04-18 06:53:00,
2013-04-18 01:58:00,70.3,65.2,29.88,SSE,158,4.0,4.0,84,0.00,,---,0.00,VWS V14.01,2013-04-18 06:58:00,
2013-04-18 02:03:00,70.1,65.0,29.88,SE,135,2.2,2.2,84,0.00,,---,0.00,VWS V14.01,2013-04-18 07:03:00,
2013-04-18 02:08:00,69.9,64.8,29.88,SE,135,2.7,2.7,84,0.00,,---,0.00,VWS V14.01,2013-04-18 07:08:00,
2013-04-18 02:13:00,69.7,64.7,29.88,SSE,158,0.0,2.7,84,0.00,,---,0.00,VWS V14.01,2013-04-18 07:13:00,
2013-04-18 02:18:00,69.5,64.8,29.88,SSE,158,4.0,4.0,85,0.00,,---,0.00,VWS V14.01,2013-04-18 07:18:00,
2013-04-18 02:23:00,69.5,64.8,29.88,SSE,158,0.0,1.1,85,0.00,,---,0.00,VWS V14.01,2013-04-18 07:23:00,
2013-04-18 02:28:00,69.4,64.7,29.88,SE,135,1.6,2.7,85,0.00,,---,0.00,VWS V14.01,2013-04-18 07:28:00,
2013-04-18 02:33:00,69.2,64.5,29.88,SSE,158,2.7,2.7,85,0.00,,---,0.00,VWS V14.01,2013-04-18 07:33:00,
2013-04-18 02:38:00,69.0,64.3,29.88,ESE,112,0.0,3.8,85,0.00,,---,0.00,VWS V14.01,2013-04-18 07:38:00,
2013-04-18 02:43:00,69.0,64.6,29.88,SE,135,3.4,3.4,86,0.00,,---,0.00,VWS V14.01,2013-04-18 07:43:00,
2013-04-18 02:48:00,68.8,64.5,29.88,SSE,158,2.0,2.0,86,0.00,,---,0.00,VWS V14.01,2013-04-18 07:48:00,
2013-04-18 02:53:00,68.6,64.6,29.88,SE,135,1.3,2.2,87,0.00,,---,0.00,VWS V14.01,2013-04-18 07:53:00,
2013-04-18 02:58:00,68.6,64.6,29.88,SE,135,0.0,2.7,87,0.00,,---,0.00,VWS V14.01,2013-04-18 07:58:00,
2013-04-18 03:03:00,68.6,64.6,29.88,SE,135,2.5,2.5,87,0.00,,---,0.00,VWS V14.01,2013-04-18 08:03:00,
2013-04-18 03:08:00,68.5,64.8,29.88,SSE,158,0.0,1.3,88,0.00,,---,0.00,VWS V14.01,2013-04-18 08:08:00,
2013-04-18 03:13:00,68.5,64.8,29.88,SSE,158,1.1,1.1,88,0.00,,---,0.00,VWS V14.01,2013-04-18 08:13:00,
2013-04-18 03:18:00,68.3,64.6,29.88,SSE,158,2.5,2.5,88,0.00,,---,0.00,VWS V14.01,2013-04-18 08:18:00,
2013-04-18 03:23:00,68.3,64.6,29.88,SE,135,0.0,0.0,88,0.00,,---,0.00,VWS V14.01,2013-04-18 08:23:00,
2013-04-18 03:28:00,68.3,64.9,29.85,ESE,112,0.0,0.0,89,0.00,,---,0.00,VWS V14.01,2013-04-18 08:28:00,
2013-04-18 03:33:00,68.1,64.7,29.85,SSE,158,0.0,0.0,89,0.00,,---,0.00,VWS V14.01,2013-04-18 08:33:00,
2013-04-18 03:38:00,68.1,64.7,29.85,SSE,158,0.0,0.0,89,0.00,,---,0.00,VWS V14.01,2013-04-18 08:38:00,
2013-04-18 03:43:00,67.9,64.6,29.85,SSE,158,2.7,2.7,89,0.00,,---,0.00,VWS V14.01,2013-04-18 08:43:00,
2013-04-18 03:48:00,67.9,64.9,29.85,SSE,158,0.0,1.1,90,0.00,,---,0.00,VWS V14.01,2013-04-18 08:48:00,
2013-04-18 03:53:00,67.7,64.7,29.85,SSE,158,0.0,0.0,90,0.00,,---,0.00,VWS V14.01,2013-04-18 08:53:00,
2013-04-18 03:58:00,67.7,64.7,29.85,ESE,112,0.0,0.0,90,0.00,,---,0.00,VWS V14.01,2013-04-18 08:58:00,
2013-04-18 04:03:00,67.7,64.7,29.85,SE,135,0.0,0.0,90,0.00,,---,0.00,VWS V14.01,2013-04-18 09:03:00,
2013-04-18 04:08:00,67.6,64.5,29.85,SE,135,0.0,0.0,90,0.00,,---,0.00,VWS V14.01,2013-04-18 09:08:00,
2013-04-18 04:13:00,67.6,64.5,29.85,SE,135,0.0,0.0,90,0.00,,---,0.00,VWS V14.01,2013-04-18 09:13:00,
2013-04-18 04:18:00,67.4,64.3,29.85,SE,135,0.0,0.0,90,0.00,,---,0.00,VWS V14.01,2013-04-18 09:18:00,
2013-04-18 04:23:00,67.4,64.7,29.85,SSE,158,0.0,0.0,91,0.00,,---,0.00,VWS V14.01,2013-04-18 09:23:00,
2013-04-18 04:28:00,67.2,64.5,29.85,SE,135,0.0,0.0,91,0.00,,---,0.00,VWS V14.01,2013-04-18 09:28:00,
2013-04-18 04:33:00,67.0,64.3,29.85,SSE,158,0.0,1.3,91,0.00,,---,0.00,VWS V14.01,2013-04-18 09:33:00,
2013-04-18 04:38:00,67.0,64.6,29.85,ESE,112,0.0,0.0,92,0.00,,---,0.00,VWS V14.01,2013-04-18 09:38:00,
2013-04-18 04:43:00,66.8,64.4,29.85,ESE,112,0.0,0.0,92,0.00,,---,0.00,VWS V14.01,2013-04-18 09:43:00,
2013-04-18 04:48:00,66.8,64.4,29.85,ESE,112,0.0,0.0,92,0.00,,---,0.00,VWS V14.01,2013-04-18 09:48:00,
2013-04-18 04:53:00,66.7,64.3,29.85,SE,135,0.0,0.0,92,0.00,,---,0.00,VWS V14.01,2013-04-18 09:53:00,
2013-04-18 04:58:00,66.7,64.3,29.85,SE,135,0.0,0.0,92,0.00,,---,0.00,VWS V14.01,2013-04-18 09:58:00,
2013-04-18 05:03:00,66.7,64.3,29.85,ESE,112,0.0,0.0,92,0.00,,---,0.00,VWS V14.01,2013-04-18 10:03:00,
2013-04-18 05:08:00,66.5,64.4,29.85,SE,135,0.0,0.0,93,0.00,,---,0.00,VWS V14.01,2013-04-18 10:08:00,
2013-04-18 05:13:00,66.5,64.4,29.85,SE,135,0.0,0.0,93,0.00,,---,0.00,VWS V14.01,2013-04-18 10:13:00,
2013-04-18 05:18:00,66.5,64.4,29.85,SSE,158,0.0,0.0,93,0.00,,---,0.00,VWS V14.01,2013-04-18 10:18:00,
2013-04-18 05:23:00,66.5,64.4,29.85,SSE,158,0.0,0.0,93,0.00,,---,0.00,VWS V14.01,2013-04-18 10:23:00,
2013-04-18 05:29:00,66.5,64.7,29.85,SE,135,0.0,0.0,94,0.00,,---,0.00,VWS V14.01,2013-04-18 10:29:00,
2013-04-18 05:34:00,66.5,64.7,29.85,SE,135,0.0,0.0,94,0.00,,---,0.00,VWS V14.01,2013-04-18 10:34:00,
2013-04-18 05:39:00,66.7,64.9,29.85,ESE,112,2.7,2.7,94,0.00,,---,0.00,VWS V14.01,2013-04-18 10:39:00,
2013-04-18 05:44:00,66.7,64.9,29.85,SSE,158,0.0,0.0,94,0.00,,---,0.00,VWS V14.01,2013-04-18 10:44:00,
2013-04-18 05:49:00,66.8,65.4,29.85,ESE,112,4.3,4.3,95,0.00,,---,0.00,VWS V14.01,2013-04-18 10:49:00,
2013-04-18 05:54:00,66.8,65.4,29.85,SSE,158,2.0,2.0,95,0.00,,---,0.00,VWS V14.01,2013-04-18 10:54:00,
2013-04-18 05:59:00,67.0,65.5,29.85,SE,135,0.0,2.7,95,0.00,,---,0.00,VWS V14.01,2013-04-18 10:59:00,
2013-04-18 06:04:00,67.0,65.5,29.85,ESE,112,1.3,2.7,95,0.00,,---,0.00,VWS V14.01,2013-04-18 11:04:00,
2013-04-18 06:09:00,67.0,65.5,29.85,SSE,158,2.5,3.1,95,0.00,,---,0.00,VWS V14.01,2013-04-18 11:09:00,
2013-04-18 06:14:00,67.2,65.7,29.85,SSE,158,3.8,3.8,95,0.00,,---,0.00,VWS V14.01,2013-04-18 11:14:00,
2013-04-18 06:19:00,67.2,65.7,29.85,WNW,292,2.5,2.5,95,0.00,,---,0.00,VWS V14.01,2013-04-18 11:19:00,
2013-04-18 06:24:00,67.4,65.9,29.85,SSE,158,2.0,2.5,95,0.00,,---,0.00,VWS V14.01,2013-04-18 11:24:00,
2013-04-18 06:29:00,67.4,65.6,29.85,SSE,158,0.0,4.7,94,0.00,,---,0.00,VWS V14.01,2013-04-18 11:29:00,
2013-04-18 06:34:00,67.4,65.6,29.85,SSE,158,2.5,3.1,94,0.00,,---,0.00,VWS V14.01,2013-04-18 11:34:00,
2013-04-18 06:39:00,67.6,65.8,29.85,SSE,158,2.7,2.7,94,0.00,,---,0.00,VWS V14.01,2013-04-18 11:39:00,
2013-04-18 06:44:00,67.6,65.8,29.85,SE,135,1.3,2.7,94,0.00,,---,0.00,VWS V14.01,2013-04-18 11:44:00,
2013-04-18 06:49:00,67.7,65.9,29.85,ESE,112,0.0,2.2,94,0.00,,---,0.00,VWS V14.01,2013-04-18 11:49:00,
2013-04-18 06:54:00,67.7,65.9,29.85,SSE,158,1.3,1.3,94,0.00,,---,0.00,VWS V14.01,2013-04-18 11:54:00,
2013-04-18 06:59:00,67.9,66.1,29.85,SSE,158,3.1,3.1,94,0.00,,---,0.00,VWS V14.01,2013-04-18 11:59:00,
2013-04-18 07:04:00,68.1,66.3,29.85,SSE,158,2.0,2.0,94,0.00,,---,0.00,VWS V14.01,2013-04-18 12:04:00,
2013-04-18 07:09:00,68.1,66.0,29.85,ENE,68,0.0,0.0,93,0.00,,---,0.00,VWS V14.01,2013-04-18 12:09:00,
2013-04-18 07:14:00,68.3,66.2,29.85,WSW,248,0.0,2.7,93,0.00,,---,0.00,VWS V14.01,2013-04-18 12:14:00,
2013-04-18 07:19:00,68.3,66.2,29.85,ESE,112,0.0,3.1,93,0.00,,---,0.00,VWS V14.01,2013-04-18 12:19:00,
2013-04-18 07:24:00,68.5,66.4,29.85,SSE,158,0.0,0.0,93,0.00,,---,0.00,VWS V14.01,2013-04-18 12:24:00,
2013-04-18 07:29:00,68.6,66.2,29.85,ESE,112,0.0,2.7,92,0.00,,---,0.00,VWS V14.01,2013-04-18 12:29:00,
2013-04-18 07:34:00,68.6,66.2,29.85,SSE,158,0.9,2.7,92,0.00,,---,0.00,VWS V14.01,2013-04-18 12:34:00,
2013-04-18 07:39:00,68.8,66.4,29.85,ESE,112,2.0,2.7,92,0.00,,---,0.00,VWS V14.01,2013-04-18 12:39:00,
2013-04-18 07:44:00,69.0,66.3,29.85,SSE,158,0.0,2.9,91,0.00,,---,0.00,VWS V14.01,2013-04-18 12:44:00,
2013-04-18 07:49:00,69.0,66.3,29.85,SE,135,2.2,3.1,91,0.00,,---,0.00,VWS V14.01,2013-04-18 12:49:00,
2013-04-18 07:54:00,69.0,66.3,29.85,SSW,202,0.0,3.4,91,0.00,,---,0.00,VWS V14.01,2013-04-18 12:54:00,
2013-04-18 07:59:00,69.2,66.1,29.85,ESE,112,3.4,3.4,90,0.00,,---,0.00,VWS V14.01,2013-04-18 12:59:00,
2013-04-18 08:04:00,69.2,66.1,29.85,SSE,158,2.0,4.7,90,0.00,,---,0.00,VWS V14.01,2013-04-18 13:04:00,
2013-04-18 08:09:00,69.2,66.1,29.85,ESE,112,2.2,3.4,90,0.00,,---,0.00,VWS V14.01,2013-04-18 13:09:00,
2013-04-18 08:14:00,69.4,66.3,29.85,SSE,158,0.0,4.3,90,0.00,,---,0.00,VWS V14.01,2013-04-18 13:14:00,
2013-04-18 08:19:00,69.4,66.0,29.85,ESE,112,1.1,2.9,89,0.00,,---,0.00,VWS V14.01,2013-04-18 13:19:00,
2013-04-18 08:24:00,69.7,66.3,29.85,SE,135,6.5,6.5,89,0.00,,---,0.00,VWS V14.01,2013-04-18 13:24:00,
2013-04-18 08:29:00,69.7,66.3,29.85,SSE,158,2.0,2.0,89,0.00,,---,0.00,VWS V14.01,2013-04-18 13:29:00,
2013-04-18 08:34:00,70.3,66.9,29.85,ESE,112,3.1,3.6,89,0.00,,---,0.00,VWS V14.01,2013-04-18 13:34:00,
2013-04-18 08:39:00,70.3,66.5,29.85,SE,135,1.1,1.1,88,0.00,,---,0.00,VWS V14.01,2013-04-18 13:39:00,
2013-04-18 08:44:00,70.6,66.9,29.85,SSE,158,3.6,3.6,88,0.00,,---,0.00,VWS V14.01,2013-04-18 13:44:00,
2013-04-18 08:49:00,70.8,66.7,29.85,SSE,158,0.9,0.9,87,0.00,,---,0.00,VWS V14.01,2013-04-18 13:49:00,
2013-04-18 08:54:00,71.2,66.8,29.85,SSE,158,2.2,4.7,86,0.00,,---,0.00,VWS V14.01,2013-04-18 13:54:00,
2013-04-18 08:59:00,71.5,67.1,29.85,SSE,158,3.8,4.0,86,0.00,,---,0.00,VWS V14.01,2013-04-18 13:59:00,
2013-04-18 09:04:00,71.9,66.8,29.85,SSE,158,0.0,0.0,84,0.00,,---,0.00,VWS V14.01,2013-04-18 14:04:00,
2013-04-18 09:09:00,72.1,66.6,29.85,SSE,158,1.3,6.3,83,0.00,,---,0.00,VWS V14.01,2013-04-18 14:09:00,
2013-04-18 09:14:00,71.7,65.9,29.85,SSW,202,2.7,3.4,82,0.00,,---,0.00,VWS V14.01,2013-04-18 14:14:00,
2013-04-18 09:19:00,71.9,65.7,29.85,SE,135,2.0,4.0,81,0.00,,---,0.00,VWS V14.01,2013-04-18 14:19:00,
2013-04-18 09:24:00,72.1,65.9,29.85,ESE,112,3.1,4.0,81,0.00,,---,0.00,VWS V14.01,2013-04-18 14:24:00,
2013-04-18 09:29:00,72.1,65.9,29.85,ESE,112,2.2,2.2,81,0.00,,---,0.00,VWS V14.01,2013-04-18 14:29:00,
2013-04-18 09:34:00,72.2,66.1,29.85,SE,135,3.1,3.1,81,0.00,,---,0.00,VWS V14.01,2013-04-18 14:34:00,
2013-04-18 09:39:00,72.4,66.3,29.85,ENE,68,2.0,2.0,81,0.00,,---,0.00,VWS V14.01,2013-04-18 14:39:00,
2013-04-18 09:44:00,73.5,67.3,29.85,SSE,158,4.0,5.6,81,0.00,,---,0.00,VWS V14.01,2013-04-18 14:44:00,
2013-04-18 09:49:00,74.2,66.9,29.85,SSE,158,0.0,0.9,78,0.00,,---,0.00,VWS V14.01,2013-04-18 14:49:00,
2013-04-18 09:54:00,74.8,67.4,29.85,SE,135,4.0,4.0,78,0.00,,---,0.00,VWS V14.01,2013-04-18 14:54:00,
2013-04-18 09:59:00,74.9,66.1,29.85,ESE,112,3.1,7.2,74,0.00,,---,0.00,VWS V14.01,2013-04-18 14:59:00,
2013-04-18 10:04:00,75.1,66.7,29.85,SSE,158,5.6,5.6,75,0.00,,---,0.00,VWS V14.01,2013-04-18 15:04:00,
2013-04-18 10:09:00,75.7,66.8,29.85,SSW,202,4.0,4.0,74,0.00,,---,0.00,VWS V14.01,2013-04-18 15:09:00,
2013-04-18 10:14:00,76.0,66.8,29.85,SSE,158,2.0,6.0,73,0.00,,---,0.00,VWS V14.01,2013-04-18 15:14:00,
2013-04-18 10:19:00,76.2,66.9,29.85,SE,135,3.1,3.8,73,0.00,,---,0.00,VWS V14.01,2013-04-18 15:19:00,
2013-04-18 10:24:00,76.7,67.4,29.85,SSE,158,8.1,8.1,73,0.00,,---,0.00,VWS V14.01,2013-04-18 15:24:00,
2013-04-18 10:29:00,76.9,66.4,29.85,ENE,68,4.3,4.3,70,0.00,,---,0.00,VWS V14.01,2013-04-18 15:29:00,
2013-04-18 10:34:00,76.6,65.6,29.85,SSE,158,2.7,7.4,69,0.00,,---,0.00,VWS V14.01,2013-04-18 15:34:00,
2013-04-18 10:39:00,76.6,65.6,29.85,SSE,158,3.1,6.3,69,0.00,,---,0.00,VWS V14.01,2013-04-18 15:39:00,
2013-04-18 10:44:00,76.9,65.6,29.85,SSE,158,2.7,2.9,68,0.00,,---,0.00,VWS V14.01,2013-04-18 15:44:00,
2013-04-18 10:49:00,77.1,65.7,29.85,ESE,112,2.5,3.6,68,0.00,,---,0.00,VWS V14.01,2013-04-18 15:49:00,
2013-04-18 10:54:00,77.1,65.7,29.85,ENE,68,2.0,3.8,68,0.00,,---,0.00,VWS V14.01,2013-04-18 15:54:00,
2013-04-18 10:59:00,77.1,65.7,29.85,SSE,158,6.5,6.5,68,0.00,,---,0.00,VWS V14.01,2013-04-18 15:59:00,
2013-04-18 11:04:00,77.1,65.7,29.85,ESE,112,4.3,4.3,68,0.00,,---,0.00,VWS V14.01,2013-04-18 16:04:00,
2013-04-18 11:09:00,77.1,65.7,29.85,SE,135,2.9,3.8,68,0.00,,---,0.00,VWS V14.01,2013-04-18 16:09:00,
2013-04-18 11:14:00,77.1,65.7,29.85,SSE,158,2.2,6.7,68,0.00,,---,0.00,VWS V14.01,2013-04-18 16:14:00,
2013-04-18 11:19:00,79.6,66.8,29.85,NE,45,3.4,5.4,65,0.00,,---,0.00,VWS V14.01,2013-04-18 16:19:00,
2013-04-18 11:24:00,79.6,66.8,29.85,SSW,202,1.1,7.2,65,0.00,,---,0.00,VWS V14.01,2013-04-18 16:24:00,
2013-04-18 11:29:00,79.6,66.8,29.85,SSE,158,2.5,6.9,65,0.00,,---,0.00,VWS V14.01,2013-04-18 16:29:00,
2013-04-18 11:34:00,79.8,65.6,29.85,SSE,158,5.4,5.4,62,0.00,,---,0.00,VWS V14.01,2013-04-18 16:34:00,
2013-04-18 11:39:00,79.8,66.1,29.85,WSW,248,2.0,6.0,63,0.00,,---,0.00,VWS V14.01,2013-04-18 16:39:00,
2013-04-18 11:44:00,79.3,65.1,29.85,WSW,248,2.5,5.4,62,0.00,,---,0.00,VWS V14.01,2013-04-18 16:44:00,
2013-04-18 11:49:00,78.5,65.4,29.85,SSE,158,2.0,4.7,64,0.00,,---,0.00,VWS V14.01,2013-04-18 16:49:00,
2013-04-18 11:54:00,78.5,65.4,29.85,SSE,158,0.9,4.0,64,0.00,,---,0.00,VWS V14.01,2013-04-18 16:54:00,
2013-04-18 11:59:00,79.8,66.1,29.85,ESE,112,0.9,2.0,63,0.00,,---,0.00,VWS V14.01,2013-04-18 16:59:00,
2013-04-18 12:05:00,80.0,66.7,29.85,SSE,158,0.0,2.5,64,0.00,,---,0.00,VWS V14.01,2013-04-18 17:05:00,
2013-04-18 12:10:00,79.1,65.9,29.85,WNW,292,3.1,3.1,64,0.00,,---,0.00,VWS V14.01,2013-04-18 17:10:00,
2013-04-18 12:15:00,78.5,65.4,29.82,ESE,112,3.8,3.8,64,0.00,,---,0.00,VWS V14.01,2013-04-18 17:15:00,
2013-04-18 12:20:00,78.5,66.2,29.82,SSE,158,0.0,3.4,66,0.00,,---,0.00,VWS V14.01,2013-04-18 17:20:00,
2013-04-18 12:25:00,78.7,66.4,29.82,SE,135,3.4,4.3,66,0.00,,---,0.00,VWS V14.01,2013-04-18 17:25:00,
2013-04-18 12:30:00,79.1,65.9,29.85,SSE,158,0.0,0.0,64,0.00,,---,0.00,VWS V14.01,2013-04-18 17:30:00,
2013-04-18 12:35:00,79.3,66.0,29.85,SSW,202,4.3,4.3,64,0.00,,---,0.00,VWS V14.01,2013-04-18 17:35:00,
2013-04-18 12:40:00,79.3,66.0,29.85,ESE,112,2.2,3.4,64,0.00,,---,0.00,VWS V14.01,2013-04-18 17:40:00,
2013-04-18 12:45:00,79.6,65.9,29.82,SSE,158,1.3,4.3,63,0.00,,---,0.00,VWS V14.01,2013-04-18 17:45:00,
2013-04-18 12:50:00,80.3,67.1,29.82,SSW,202,6.0,6.3,64,0.00,,---,0.00,VWS V14.01,2013-04-18 17:50:00,
2013-04-18 12:55:00,80.5,66.3,29.82,WSW,248,3.6,3.8,62,0.00,,---,0.00,VWS V14.01,2013-04-18 17:55:00,
2013-04-18 13:00:00,81.1,67.3,29.82,SE,135,2.7,3.1,63,0.00,,---,0.00,VWS V14.01,2013-04-18 18:00:00,
2013-04-18 13:05:00,80.9,67.1,29.82,SSE,158,6.0,6.0,63,0.00,,---,0.00,VWS V14.01,2013-04-18 18:05:00,
2013-04-18 13:10:00,80.7,66.5,29.82,SSE,158,0.9,5.4,62,0.00,,---,0.00,VWS V14.01,2013-04-18 18:10:00,
2013-04-18 13:15:00,80.3,66.1,29.82,ENE,68,2.2,6.0,62,0.00,,---,0.00,VWS V14.01,2013-04-18 18:15:00,
2013-04-18 13:20:00,80.2,66.0,29.82,SSE,158,3.1,4.0,62,0.00,,---,0.00,VWS V14.01,2013-04-18 18:20:00,
2013-04-18 13:25:00,80.5,67.2,29.82,SSE,158,1.3,1.3,64,0.00,,---,0.00,VWS V14.01,2013-04-18 18:25:00,
2013-04-18 13:30:00,80.5,66.8,29.82,SE,135,5.4,5.4,63,0.00,,---,0.00,VWS V14.01,2013-04-18 18:30:00,
2013-04-18 13:35:00,80.3,66.6,29.82,WSW,248,3.8,5.4,63,0.00,,---,0.00,VWS V14.01,2013-04-18 18:35:00,
2013-04-18 13:40:00,80.3,66.6,29.82,ESE,112,1.1,1.1,63,0.00,,---,0.00,VWS V14.01,2013-04-18 18:40:00,
2013-04-18 13:45:00,80.3,66.6,29.82,SE,135,2.7,6.0,63,0.00,,---,0.00,VWS V14.01,2013-04-18 18:45:00,
2013-04-18 13:50:00,81.2,67.5,29.82,SW,225,0.0,2.7,63,0.00,,---,0.00,VWS V14.01,2013-04-18 18:50:00,
2013-04-18 13:55:00,81.6,66.9,29.82,SSW,202,0.0,2.7,61,0.00,,---,0.00,VWS V14.01,2013-04-18 18:55:00,
2013-04-18 14:00:00,81.4,66.7,29.82,SW,225,0.0,2.2,61,0.00,,---,0.00,VWS V14.01,2013-04-18 19:00:00,
2013-04-18 14:05:00,81.4,67.6,29.82,SSW,202,3.6,3.6,63,0.00,,---,0.00,VWS V14.01,2013-04-18 19:05:00,
2013-04-18 14:10:00,81.4,67.6,29.82,SSE,158,0.0,2.5,63,0.00,,---,0.00,VWS V14.01,2013-04-18 19:10:00,
2013-04-18 14:15:00,82.9,68.5,29.82,ESE,112,6.0,6.0,62,0.00,,---,0.00,VWS V14.01,2013-04-18 19:15:00,
2013-04-18 14:20:00,82.9,67.6,29.82,SSE,158,3.4,5.8,60,0.00,,---,0.00,VWS V14.01,2013-04-18 19:20:00,
2013-04-18 14:25:00,82.0,67.2,29.82,SE,135,5.4,5.4,61,0.00,,---,0.00,VWS V14.01,2013-04-18 19:25:00,
2013-04-18 14:30:00,82.5,67.7,29.79,SSE,158,2.0,2.0,61,0.00,,---,0.00,VWS V14.01,2013-04-18 19:30:00,
2013-04-18 14:35:00,84.1,69.2,29.79,SE,135,6.0,6.0,61,0.00,,---,0.00,VWS V14.01,2013-04-18 19:35:00,
2013-04-18 14:40:00,85.6,67.0,29.79,SSE,158,4.7,4.7,54,0.00,,---,0.00,VWS V14.01,2013-04-18 19:40:00,
2013-04-18 14:45:00,86.5,68.4,29.79,East,90,2.7,3.8,55,0.00,,---,0.00,VWS V14.01,2013-04-18 19:45:00,
2013-04-18 14:50:00,85.0,66.0,29.79,SSE,158,2.9,5.4,53,0.00,,---,0.00,VWS V14.01,2013-04-18 19:50:00,
2013-04-18 14:55:00,83.4,65.6,29.79,ESE,112,1.3,1.3,55,0.00,,---,0.00,VWS V14.01,2013-04-18 19:55:00,
2013-04-18 15:00:00,83.9,67.1,29.79,SSE,158,3.1,3.8,57,0.00,,---,0.00,VWS V14.01,2013-04-18 20:00:00,
2013-04-18 15:05:00,84.3,67.4,29.79,ESE,112,2.5,2.5,57,0.00,,---,0.00,VWS V14.01,2013-04-18 20:05:00,
2013-04-18 15:10:00,84.8,67.4,29.79,West,270,3.6,3.6,56,0.00,,---,0.00,VWS V14.01,2013-04-18 20:10:00,
2013-04-18 15:15:00,85.7,68.2,29.76,SSW,202,0.0,0.0,56,0.00,,---,0.00,VWS V14.01,2013-04-18 20:15:00,
2013-04-18 15:20:00,84.7,66.2,29.76,SSW,202,1.3,1.3,54,0.00,,---,0.00,VWS V14.01,2013-04-18 20:20:00,
2013-04-18 15:25:00,83.6,65.7,29.76,SSE,158,5.8,5.8,55,0.00,,---,0.00,VWS V14.01,2013-04-18 20:25:00,
2013-04-18 15:30:00,83.6,66.2,29.76,SSE,158,2.5,2.5,56,0.00,,---,0.00,VWS V14.01,2013-04-18 20:30:00,
2013-04-18 15:35:00,84.1,66.7,29.76,WNW,292,7.4,10.3,56,0.00,,---,0.00,VWS V14.01,2013-04-18 20:35:00,
2013-04-18 15:40:00,84.7,66.7,29.76,SE,135,6.3,6.3,55,0.00,,---,0.00,VWS V14.01,2013-04-18 20:40:00,
2013-04-18 15:45:00,85.0,67.6,29.76,SSE,158,3.1,3.1,56,0.00,,---,0.00,VWS V14.01,2013-04-18 20:45:00,
2013-04-18 15:50:00,84.7,66.7,29.76,ESE,112,4.0,4.0,55,0.00,,---,0.00,VWS V14.01,2013-04-18 20:50:00,
2013-04-18 15:55:00,84.8,67.4,29.76,ESE,112,2.7,2.7,56,0.00,,---,0.00,VWS V14.01,2013-04-18 20:55:00,
2013-04-18 16:00:00,83.9,66.1,29.76,SSE,158,6.5,6.5,55,0.00,,---,0.00,VWS V14.01,2013-04-18 21:00:00,
2013-04-18 16:05:00,83.2,66.4,29.76,SSE,158,7.4,7.4,57,0.00,,---,0.00,VWS V14.01,2013-04-18 21:05:00,
2013-04-18 16:10:00,82.9,66.1,29.76,SSE,158,4.9,4.9,57,0.00,,---,0.00,VWS V14.01,2013-04-18 21:10:00,
2013-04-18 16:15:00,82.5,66.2,29.74,SSE,158,2.0,4.9,58,0.00,,---,0.00,VWS V14.01,2013-04-18 21:15:00,
2013-04-18 16:20:00,82.1,65.9,29.74,SSE,158,3.6,3.6,58,0.00,,---,0.00,VWS V14.01,2013-04-18 21:20:00,
2013-04-18 16:25:00,81.8,66.6,29.74,SSE,158,0.0,2.5,60,0.00,,---,0.00,VWS V14.01,2013-04-18 21:25:00,
2013-04-18 16:30:00,81.4,66.7,29.74,SSE,158,3.6,3.6,61,0.00,,---,0.00,VWS V14.01,2013-04-18 21:30:00,
2013-04-18 16:35:00,81.2,67.0,29.74,SE,135,6.3,6.3,62,0.00,,---,0.00,VWS V14.01,2013-04-18 21:35:00,
2013-04-18 16:40:00,80.9,67.1,29.74,SSE,158,6.5,6.5,63,0.00,,---,0.00,VWS V14.01,2013-04-18 21:40:00,
2013-04-18 16:45:00,80.7,66.9,29.74,ESE,112,2.5,2.5,63,0.00,,---,0.00,VWS V14.01,2013-04-18 21:45:00,
2013-04-18 16:50:00,80.3,66.6,29.74,SSE,158,2.0,4.0,63,0.00,,---,0.00,VWS V14.01,2013-04-18 21:50:00,
2013-04-18 16:55:00,80.2,66.4,29.74,SSE,158,0.0,1.6,63,0.00,,---,0.00,VWS V14.01,2013-04-18 21:55:00,
2013-04-18 17:00:00,79.8,66.6,29.74,SE,135,2.9,4.3,64,0.00,,---,0.00,VWS V14.01,2013-04-18 22:00:00,
2013-04-18 17:05:00,79.6,66.8,29.74,SSE,158,4.3,4.3,65,0.00,,---,0.00,VWS V14.01,2013-04-18 22:05:00,
2013-04-18 17:10:00,79.4,66.7,29.74,ESE,112,3.4,3.8,65,0.00,,---,0.00,VWS V14.01,2013-04-18 22:10:00,
2013-04-18 17:15:00,79.1,66.8,29.74,SSE,158,0.0,2.0,66,0.00,,---,0.00,VWS V14.01,2013-04-18 22:15:00,
2013-04-18 17:20:00,78.9,67.0,29.74,SE,135,2.7,3.6,67,0.00,,---,0.00,VWS V14.01,2013-04-18 22:20:00,
2013-04-18 17:25:00,78.7,66.8,29.74,SSE,158,2.9,7.4,67,0.00,,---,0.00,VWS V14.01,2013-04-18 22:25:00,
2013-04-18 17:30:00,78.5,66.7,29.74,ESE,112,5.4,5.4,67,0.00,,---,0.00,VWS V14.01,2013-04-18 22:30:00,
2013-04-18 17:35:00,78.4,66.9,29.74,SSE,158,0.0,4.9,68,0.00,,---,0.00,VWS V14.01,2013-04-18 22:35:00,
2013-04-18 17:41:00,78.4,66.9,29.74,SSE,158,3.8,3.8,68,0.00,,---,0.00,VWS V14.01,2013-04-18 22:41:00,
2013-04-18 17:46:00,78.2,66.8,29.74,SSE,158,1.6,4.9,68,0.00,,---,0.00,VWS V14.01,2013-04-18 22:46:00,
2013-04-18 17:51:00,78.2,67.2,29.74,SSE,158,4.7,6.3,69,0.00,,---,0.00,VWS V14.01,2013-04-18 22:51:00,
2013-04-18 17:56:00,78.2,67.2,29.74,SSE,158,2.5,2.7,69,0.00,,---,0.00,VWS V14.01,2013-04-18 22:56:00,
2013-04-18 18:01:00,78.0,67.0,29.71,WSW,248,2.2,5.8,69,0.00,,---,0.00,VWS V14.01,2013-04-18 23:01:00,
2013-04-18 18:06:00,78.0,67.0,29.71,SE,135,3.8,10.3,69,0.00,,---,0.00,VWS V14.01,2013-04-18 23:06:00,
2013-04-18 18:11:00,78.2,67.2,29.71,SSE,158,5.4,5.8,69,0.00,,---,0.00,VWS V14.01,2013-04-18 23:11:00,
2013-04-18 18:16:00,78.2,67.2,29.71,SSE,158,4.0,4.0,69,0.00,,---,0.00,VWS V14.01,2013-04-18 23:16:00,
2013-04-18 18:21:00,78.2,67.2,29.71,ESE,112,5.8,5.8,69,0.00,,---,0.00,VWS V14.01,2013-04-18 23:21:00,
2013-04-18 18:26:00,78.4,67.4,29.71,SSE,158,5.4,5.4,69,0.00,,---,0.00,VWS V14.01,2013-04-18 23:26:00,
2013-04-18 18:31:00,78.4,67.4,29.71,SSE,158,3.8,4.3,69,0.00,,---,0.00,VWS V14.01,2013-04-18 23:31:00,
2013-04-18 18:36:00,78.2,67.6,29.71,SSW,202,2.5,6.5,70,0.00,,---,0.00,VWS V14.01,2013-04-18 23:36:00,
2013-04-18 18:41:00,78.0,67.4,29.71,SSE,158,5.6,7.2,70,0.00,,---,0.00,VWS V14.01,2013-04-18 23:41:00,
2013-04-18 18:46:00,77.8,67.7,29.71,SSE,158,4.0,4.0,71,0.00,,---,0.00,VWS V14.01,2013-04-18 23:46:00,
2013-04-18 18:51:00,77.6,67.9,29.71,SSW,202,4.5,8.1,72,0.00,,---,0.00,VWS V14.01,2013-04-18 23:51:00,
2013-04-18 18:56:00,77.6,67.9,29.71,ESE,112,5.8,5.8,72,0.00,,---,0.00,VWS V14.01,2013-04-18 23:56:00,
2013-04-18 19:01:00,77.6,68.3,29.71,SSE,158,1.3,3.8,73,0.00,,---,0.00,VWS V14.01,2013-04-19 00:01:00,
2013-04-18 19:06:00,77.5,68.1,29.71,SSW,202,4.3,4.3,73,0.00,,---,0.00,VWS V14.01,2013-04-19 00:06:00,
2013-04-18 19:11:00,77.5,68.1,29.71,SSW,202,1.1,3.4,73,0.00,,---,0.00,VWS V14.01,2013-04-19 00:11:00,
2013-04-18 19:16:00,77.3,68.0,29.71,SSE,158,3.4,5.8,73,0.00,,---,0.00,VWS V14.01,2013-04-19 00:16:00,
2013-04-18 19:21:00,77.3,68.3,29.71,SSW,202,1.1,6.5,74,0.00,,---,0.00,VWS V14.01,2013-04-19 00:21:00,
2013-04-18 19:26:00,77.1,68.2,29.71,South,180,0.0,5.8,74,0.00,,---,0.00,VWS V14.01,2013-04-19 00:26:00,
2013-04-18 19:31:00,77.1,68.2,29.71,SSE,158,3.8,4.3,74,0.00,,---,0.00,VWS V14.01,2013-04-19 00:31:00,
2013-04-18 19:36:00,76.9,68.4,29.71,SSE,158,3.6,4.3,75,0.00,,---,0.00,VWS V14.01,2013-04-19 00:36:00,
2013-04-18 19:41:00,76.7,68.6,29.71,SSE,158,3.4,6.0,76,0.00,,---,0.00,VWS V14.01,2013-04-19 00:41:00,
2013-04-18 19:46:00,76.7,68.6,29.71,SSW,202,1.6,5.8,76,0.00,,---,0.00,VWS V14.01,2013-04-19 00:46:00,
2013-04-18 19:51:00,76.6,68.4,29.71,SSE,158,4.0,4.0,76,0.00,,---,0.00,VWS V14.01,2013-04-19 00:51:00,
2013-04-18 19:56:00,76.6,68.4,29.71,SSE,158,4.3,5.6,76,0.00,,---,0.00,VWS V14.01,2013-04-19 00:56:00,
2013-04-18 20:01:00,76.6,68.8,29.71,WSW,248,2.7,2.7,77,0.00,,---,0.00,VWS V14.01,2013-04-19 01:01:00,
2013-04-18 20:06:00,76.6,68.8,29.71,SSE,158,1.3,3.1,77,0.00,,---,0.00,VWS V14.01,2013-04-19 01:06:00,
2013-04-18 20:11:00,76.6,68.8,29.71,SSE,158,4.9,4.9,77,0.00,,---,0.00,VWS V14.01,2013-04-19 01:11:00,
2013-04-18 20:16:00,76.6,68.8,29.74,ESE,112,2.5,2.5,77,0.00,,---,0.00,VWS V14.01,2013-04-19 01:16:00,
2013-04-18 20:21:00,76.4,69.0,29.74,SSW,202,0.9,1.6,78,0.00,,---,0.00,VWS V14.01,2013-04-19 01:21:00,
2013-04-18 20:26:00,76.4,69.0,29.74,SSW,202,1.1,3.6,78,0.00,,---,0.00,VWS V14.01,2013-04-19 01:26:00,
2013-04-18 20:31:00,76.4,69.0,29.74,SSW,202,1.6,1.6,78,0.00,,---,0.00,VWS V14.01,2013-04-19 01:31:00,
2013-04-18 20:36:00,76.4,69.0,29.74,SSW,202,1.6,2.2,78,0.00,,---,0.00,VWS V14.01,2013-04-19 01:36:00,
2013-04-18 20:41:00,76.4,69.0,29.74,SSE,158,4.0,5.6,78,0.00,,---,0.00,VWS V14.01,2013-04-19 01:41:00,
2013-04-18 20:46:00,76.4,69.0,29.74,SSE,158,3.6,4.9,78,0.00,,---,0.00,VWS V14.01,2013-04-19 01:46:00,
2013-04-18 20:51:00,76.4,69.0,29.74,ESE,112,3.8,3.8,78,0.00,,---,0.00,VWS V14.01,2013-04-19 01:51:00,
2013-04-18 20:56:00,76.4,69.4,29.74,SSE,158,2.9,2.9,79,0.00,,---,0.00,VWS V14.01,2013-04-19 01:56:00,
2013-04-18 21:01:00,76.4,69.4,29.76,SSW,202,3.8,5.8,79,0.00,,---,0.00,VWS V14.01,2013-04-19 02:01:00,
2013-04-18 21:06:00,76.4,69.4,29.76,SSE,158,1.3,2.9,79,0.00,,---,0.00,VWS V14.01,2013-04-19 02:06:00,
2013-04-18 21:11:00,76.2,69.6,29.76,WSW,248,2.5,2.5,80,0.00,,---,0.00,VWS V14.01,2013-04-19 02:11:00,
2013-04-18 21:16:00,75.7,69.1,29.74,SSE,158,2.9,2.9,80,0.00,,---,0.00,VWS V14.01,2013-04-19 02:16:00,
2013-04-18 21:21:00,75.1,69.6,29.74,SSE,158,1.1,3.8,83,0.00,,---,0.00,VWS V14.01,2013-04-19 02:21:00,
2013-04-18 21:26:00,74.8,69.9,29.74,SSE,158,3.8,3.8,85,0.00,,---,0.00,VWS V14.01,2013-04-19 02:26:00,
2013-04-18 21:31:00,74.4,69.9,29.76,SSE,158,2.2,3.6,86,0.05,,---,0.05,VWS V14.01,2013-04-19 02:31:00,
2013-04-18 21:36:00,73.9,70.1,29.76,SSW,202,4.3,4.3,88,0.05,,---,0.05,VWS V14.01,2013-04-19 02:36:00,
2013-04-18 21:41:00,73.7,70.2,29.76,SSE,158,3.1,3.1,89,0.05,,---,0.05,VWS V14.01,2013-04-19 02:41:00,
2013-04-18 21:46:00,73.5,70.4,29.74,SSE,158,2.0,5.4,90,0.05,,---,0.05,VWS V14.01,2013-04-19 02:46:00,
2013-04-18 21:51:00,73.3,70.5,29.74,WNW,292,1.1,1.6,91,0.05,,---,0.05,VWS V14.01,2013-04-19 02:51:00,
2013-04-18 21:56:00,72.1,67.3,29.74,NNW,338,3.1,4.0,85,0.05,,---,0.05,VWS V14.01,2013-04-19 02:56:00,
2013-04-18 22:01:00,70.3,63.8,29.76,NNW,338,4.3,5.8,80,0.05,,---,0.05,VWS V14.01,2013-04-19 03:01:00,
2013-04-18 22:06:00,68.5,62.4,29.76,NNE,22,3.8,9.2,81,0.05,,---,0.05,VWS V14.01,2013-04-19 03:06:00,
2013-04-18 22:11:00,67.2,61.5,29.76,ESE,112,0.0,2.9,82,0.05,,---,0.05,VWS V14.01,2013-04-19 03:11:00,
2013-04-18 22:16:00,66.3,61.3,29.79,NNE,22,4.5,5.8,84,0.09,,---,0.09,VWS V14.01,2013-04-19 03:16:00,
2013-04-18 22:21:00,65.4,61.4,29.79,NNW,338,2.5,3.1,87,0.09,,---,0.09,VWS V14.01,2013-04-19 03:21:00,
2013-04-18 22:26:00,65.0,61.7,29.79,NNW,338,3.4,4.0,89,0.09,,---,0.09,VWS V14.01,2013-04-19 03:26:00,
2013-04-18 22:31:00,64.7,62.0,29.79,NNW,338,3.4,5.6,91,0.04,,---,0.09,VWS V14.01,2013-04-19 03:31:00,
2013-04-18 22:36:00,64.1,61.8,29.79,NNW,338,2.0,2.0,92,0.04,,---,0.09,VWS V14.01,2013-04-19 03:36:00,
2013-04-18 22:41:00,63.8,61.4,29.79,North,0,3.6,3.8,92,0.12,,---,0.17,VWS V14.01,2013-04-19 03:41:00,
2013-04-18 22:46:00,63.2,61.2,29.79,NW,315,2.7,3.8,93,0.16,,---,0.21,VWS V14.01,2013-04-19 03:46:00,
2013-04-18 22:51:00,63.1,61.3,29.79,NNW,338,3.4,3.4,94,0.20,,---,0.25,VWS V14.01,2013-04-19 03:51:00,
2013-04-18 22:57:00,62.9,61.1,29.79,NNW,338,3.8,3.8,94,0.20,,---,0.25,VWS V14.01,2013-04-19 03:57:00,
2013-04-18 23:01:00,62.7,61.2,29.82,NW,315,5.4,5.4,95,0.20,,---,0.25,VWS V14.01,2013-04-19 04:01:00,
2013-04-18 23:02:00,62.7,61.2,29.82,NW,315,5.4,5.4,95,0.20,,---,0.25,VWS V14.01,2013-04-19 04:02:00,
2013-04-18 23:07:00,62.2,60.7,29.82,North,0,5.6,5.6,95,0.25,,---,0.30,VWS V14.01,2013-04-19 04:07:00,
2013-04-18 23:12:00,61.8,60.1,29.82,NW,315,5.4,5.8,94,0.25,,---,0.30,VWS V14.01,2013-04-19 04:12:00,
2013-04-18 23:17:00,61.4,59.7,29.79,NNW,338,2.9,4.9,94,0.21,,---,0.30,VWS V14.01,2013-04-19 04:17:00,
2013-04-18 23:22:00,61.1,59.3,29.79,NNW,338,6.0,6.0,94,0.21,,---,0.30,VWS V14.01,2013-04-19 04:22:00,
2013-04-18 23:27:00,60.7,59.0,29.79,WNW,292,2.9,5.8,94,0.25,,---,0.34,VWS V14.01,2013-04-19 04:27:00,
2013-04-18 23:32:00,60.5,58.8,29.82,NNW,338,2.0,2.5,94,0.29,,---,0.38,VWS V14.01,2013-04-19 04:32:00,
2013-04-18 23:37:00,60.4,58.9,29.82,WNW,292,2.5,2.5,95,0.33,,---,0.42,VWS V14.01,2013-04-19 04:37:00,
2013-04-18 23:42:00,60.0,58.6,29.82,NNW,338,5.8,5.8,95,0.29,,---,0.46,VWS V14.01,2013-04-19 04:42:00,
2013-04-18 23:47:00,59.8,58.4,29.82,North,0,2.7,2.7,95,0.25,,---,0.46,VWS V14.01,2013-04-19 04:47:00,
2013-04-18 23:52:00,59.6,58.5,29.82,NW,315,2.5,3.8,96,0.21,,---,0.46,VWS V14.01,2013-04-19 04:52:00,
2013-04-18 23:57:00,59.5,58.3,29.82,NNW,338,7.2,10.1,96,0.21,,---,0.46,VWS V14.01,2013-04-19 04:57:00,